Tracking 25734 objects as of 29-May-2022
HD Live streaming from Space Station
objects crossing your sky now

STARLINK-3131

Track STARLINK-3131 now!
10-day predictions
STARLINK-3131 is classified as:


NORAD ID: 49427
Int'l Code: 2021-104V
Perigee: 545.3 km
Apogee: 548.3 km
Inclination: 53.2 °
Period: 95.4 minutes
Semi major axis: 6917 km
RCS: Unknown
Launch date: November 13, 2021
Source: United States (US)
Launch site: AIR FORCE EASTERN TEST RANGE (AFETR)
aabbcc
Your satellite tracking list
Your tracking list is empty




NASA's NSSDC Master Catalog

Two Line Element Set (TLE):
1 49427U 21104V   22148.58334491 -.00048115  00000-0 -30227-2 0  9995
2 49427  53.2180 309.1469 0002149  37.3531  57.3330 15.08870664  1307
Source of the keplerian elements: AFSPC